Presure
189 214 203 170 71 175 181 84 75 89 207 194 199 191 192 204 192 181 175 186 198 189 181 172 180 217 213 214 212 211 211 211 210 212 212 209 202 187 176 173 176 175 182 179
195 220 191 199 174 183 197 205 160 205 223 120 192 199 196 201 205 188 197 197 194 197 186 181 177 179 206 214 203 213 213 212 215 192 218 220 222 216 201 195 195 186 177 182
229 207 207 136 191 96 187 131 127 195 202 219 208 189 189 203 204 213 200 194 192 199 201 190 182 180 177 180 143 213 165 209 207 207 212 214 121 209 113 148 159 158 157 120
278 206 247 206 231 223 73 200 178 200 131 200 217 227 190 191 201 204 215 215 207 189 202 189 193 176 179 185 178 180 211 211 209 206 205 208 209 191 125 124 125 126 126 125
388 290 270 210 215 228 209 64 83 179 183 199 203 211 224 191 198 197 208 203 207 201 187 188 198 195 184 175 181 182 171 126 206 208 206 206 207 204 204 205 206 209 210 210
383 369 293 276 228 215 214 218 216 195 187 124 124 147 206 212 228 214 205 198 196 186 180 190 189 192 197 189 183 179 184 181 172 173 198 207 210 207 206 205 206 208 205 204
365 374 385 286 273 263 213 129 204 218 189 202 166 184 204 202 212 221 227 210 194 195 66 194 176 172 190 193 192 183 181 179 179 174 173 173 193 219 228 229 230 237 242 246
442 351 366 376 376 271 261 206 209 221 218 211 177 189 106 206 198 202 205 215 224 218 191 192 206 208 201 194 192 193 186 174 183 181 180 177 177 180 184 192 204 117 215 223
440 463 340 361 395 370 270 258 249 238 90 212 87 74 68 211 209 207 201 197 206 223 225 202 191 187 214 207 196 192 189 189 185 174 184 183 174 179 178 180 98 192 194 199
441 425 404 337 357 433 352 270 260 250 227 222 204 204 63 204 213 206 205 205 198 205 205 220 217 201 196 192 191 200 197 193 190 189 181 172 180 196 198 189 181 172 182 189
451 420 420 389 332 341 403 347 272 262 251 234 230 216 233 211 147 199 199 196 165 201 196 203 194 214 221 199 196 188 191 196 198 197 194 191 181 179 189 200 206 196 168 176
448 421 407 401 323 332 333 387 339 273 259 251 242 247 226 206 205 79 71 122 196 198 184 189 196 202 201 215 215 194 190 188 188 188 189 197 200 202 202 191 187 192 198 202
477 445 421 412 402 319 332 338 373 331 284 262 262 236 250 221 218 214 209 202 191 175 191 200 193 191 194 200 209 213 216 205 195 191 192 194 190 190 193 198 201 200 192 195
451 455 434 420 404 360 315 329 373 362 321 303 269 262 247 253 235 223 215 215 206 191 196 190 183 189 191 194 202 211 214 213 218 221 217 204 199 200 223 204 207 215 212 209
448 445 446 419 403 400 353 315 321 356 354 324 323 277 266 258 248 241 225 218 211 213 198 197 191 186 189 193 190 191 208 207 209 212 213 214 214 212 213 214 217 221 231 231
469 455 443 441 411 396 395 356 312 314 318 348 335 325 309 268 263 245 231 235 220 209 216 202 193 192 190 192 195 198 192 188 197 200 197 203 210 213 213 212 210 215 215 218
470 466 447 429 442 401 387 387 364 314 308 362 347 338 360 301 280 269 252 249 249 223 213 213 209 201 199 196 194 196 201 196 190 183 182 185 192 200 208 209 211 212 213 215
442 464 463 439 423 425 386 379 374 372 316 319 355 330 322 335 339 319 290 259 254 259 231 216 212 213 206 207 203 204 200 198 198 194 192 194 189 184 199 202 204 208 212 214
345 403 459 459 448 419 419 371 372 349 391 319 333 337 328 319 318 344 347 324 272 249 256 249 230 216 218 205 207 211 205 200 195 200 201 198 192 196 191 189 192 203 201 203
321 344 375 467 467 457 417 400 369 372 377 356 318 351 336 337 314 316 316 320 327 331 267 246 243 248 238 217 217 204 204 205 207 205 201 200 202 199 195 197 195 200 190 198
322 327 340 373 455 458 479 420 394 374 347 369 356 321 349 359 341 330 311 311 316 319 330 343 287 245 240 244 237 222 208 209 209 207 205 205 206 207 204 194 201 202 203 203
333 306 321 338 370 373 476 482 440 381 376 357 343 368 343 337 348 338 334 321 314 313 315 316 328 339 336 291 255 249 252 216 214 213 207 213 214 215 213 214 209 206 205 202
345 331 298 330 331 347 376 434 454 483 383 368 359 331 349 361 334 317 314 312 316 319 322 298 339 298 341 352 331 320 276 259 246 216 215 212 207 207 219 216 212 215 213 214
352 341 330 314 316 322 334 361 385 430 464 475 378 362 334 320 344 342 337 343 309 308 318 317 310 311 320 327 337 353 358 329 310 266 251 219 217 216 216 215 214 209 215 216
375 360 338 331 314 313 331 326 341 367 390 432 458 432 369 341 325 320 341 319 313 309 316 313 307 302 325 327 325 329 320 323 345 356 348 273 257 245 243 225 216 209 207 212
411 393 351 341 329 322 299 324 322 329 343 375 392 418 446 436 364 337 331 322 307 300 298 298 306 311 311 312 312 307 314 315 295 303 328 322 332 315 266 251 237 226 220 217
Wind_Speed
105 111 97 76 14 90 80 40 39 46 91 89 81 87 92 94 93 91 89 84 78 73 72 75 71 69 72 75 77 77 79 79 79 80 81 81 80 74 74 74 73 74 73 71
111 115 93 96 91 88 93 90 73 88 92 68 90 90 99 99 97 96 91 88 82 79 77 77 77 75 74 75 74 77 76 76 75 76 76 76 76 77 78 77 77 75 73 72
123 113 102 66 97 41 91 65 57 93 96 97 98 99 101 101 98 94 91 85 83 82 82 80 79 77 76 75 53 76 66 76 77 77 74 74 79 73 73 72 73 72 70 61
124 119 111 111 111 108 28 100 95 101 61 99 99 101 104 102 99 95 90 89 87 83 83 82 82 80 77 76 74 73 77 77 77 76 75 74 73 74 80 77 75 74 72 69
89 119 120 116 117 113 108 29 26 102 95 109 109 107 103 106 104 99 92 89 88 88 84 83 84 84 81 80 78 76 76 60 76 76 76 76 75 75 74 73 72 72 72 72
81 97 124 125 123 118 115 114 115 115 113 61 67 79 106 103 99 101 96 92 92 90 87 87 86 85 86 85 83 82 79 77 75 73 75 76 77 77 75 74 73 74 74 74
82 84 87 127 125 125 122 66 118 126 113 114 84 107 112 106 100 96 96 95 93 93 28 90 87 85 88 88 87 85 83 81 79 78 77 75 75 76 74 73 72 69 68 67
52 87 87 89 103 126 127 123 123 126 127 115 94 110 67 109 104 99 96 93 93 94 95 96 94 94 93 91 89 89 87 85 82 81 81 79 77 73 71 70 71 48 69 68
47 48 90 90 85 103 129 128 123 126 39 124 53 39 34 113 109 103 99 96 93 93 94 99 99 96 92 93 92 92 91 90 88 86 85 84 81 76 73 71 53 69 69 69
43 53 72 90 89 79 109 130 125 131 131 136 122 114 19 108 112 105 101 99 96 93 94 95 99 100 98 97 95 95 95 94 92 91 89 88 84 82 81 77 74 72 71 70
34 51 60 75 88 92 87 109 132 135 133 135 134 128 131 109 74 103 104 102 79 99 99 98 100 98 98 102 100 98 97 97 97 95 93 91 88 86 83 82 81 78 75 71
32 48 57 67 86 89 95 96 113 138 137 137 137 133 128 114 115 37 21 52 106 105 94 103 102 101 100 100 100 106 104 101 98 95 93 94 92 91 88 84 81 80 79 78
22 37 46 57 68 88 91 93 100 116 137 140 139 133 131 128 123 118 118 115 107 93 107 109 108 106 105 104 103 103 102 105 103 99 96 95 93 92 90 87 86 86 84 81
19 29 41 49 60 79 88 90 91 104 118 134 139 137 132 133 131 126 118 122 120 114 117 113 106 106 106 107 106 103 103 102 99 98 101 102 99 98 91 90 86 85 87 88
15 23 32 45 54 63 81 88 92 97 106 117 121 139 135 134 132 132 129 123 120 125 121 122 118 110 110 112 108 106 104 104 103 100 98 97 96 95 93 91 88 85 80 81
7 18 27 35 50 56 62 81 89 93 96 106 111 115 124 137 134 131 128 133 129 124 129 129 126 122 115 114 114 112 109 105 106 105 103 100 98 95 96 94 92 87 85 83
2 10 21 27 36 54 56 61 75 89 93 96 101 102 92 124 134 132 132 131 134 135 130 129 131 129 127 124 119 116 117 114 109 104 101 100 100 100 98 96 93 90 88 86
15 4 12 24 30 42 57 59 64 71 88 92 96 100 104 102 105 121 130 131 131 131 134 132 129 131 131 132 129 125 121 119 117 115 113 110 104 99 101 100 97 94 90 88
23 21 3 12 25 32 45 58 61 70 69 87 92 99 101 102 103 81 93 116 132 131 132 132 136 132 133 131 130 129 126 123 119 119 119 116 111 110 106 103 99 100 96 94
15 18 21 2 9 25 37 53 60 64 67 74 86 92 96 101 102 100 101 101 102 107 129 127 129 131 137 136 136 129 128 128 126 124 121 118 117 114 110 110 108 106 96 98
12 12 13 16 2 8 21 40 56 62 69 71 76 84 87 97 101 102 101 101 101 100 97 93 119 134 135 135 137 137 132 132 131 128 125 123 121 120 117 113 111 111 109 107
11 8 7 8 11 1 5 14 37 57 66 72 74 79 83 85 88 93 96 97 98 97 97 95 92 92 97 126 135 132 133 136 135 134 129 130 128 125 122 121 119 117 115 111
12 10 8 5 3 4 3 4 9 14 58 68 75 74 78 83 91 92 92 93 95 99 94 97 84 102 87 78 104 115 135 133 134 138 137 134 129 126 129 126 124 122 119 118
15 14 11 8 7 5 5 2 5 6 10 21 66 77 77 76 81 84 84 89 95 98 92 91 92 92 92 89 83 79 77 105 120 134 133 139 136 137 134 131 129 125 124 123
15 16 16 14 11 9 9 9 7 6 10 11 12 41 74 83 79 76 78 82 85 90 90 91 93 94 89 89 87 82 83 82 74 75 81 134 133 132 132 137 134 127 123 125
17 18 19 19 17 15 12 13 12 12 11 10 15 16 16 36 80 85 86 89 90 89 90 90 94 93 91 87 84 83 82 81 92 89 80 88 89 106 134 133 137 137 135 132
Wind_Direction
252 243 243 247 237 235 236 228 231 240 233 227 225 226 229 230 230 230 230 232 232 230 231 232 230 229 231 232 233 233 235 236 238 239 240 241 241 238 238 238 238 241 243 243
251 241 246 236 239 237 235 234 231 229 232 228 228 226 228 230 228 232 229 229 229 228 229 231 232 232 230 231 231 233 234 235 237 238 240 241 243 243 244 243 244 242 243 245
245 243 243 236 237 241 235 238 232 233 232 232 230 227 233 232 232 228 232 232 232 231 229 231 233 232 233 234 231 234 233 236 237 238 239 240 240 243 240 242 243 244 246 246
236 242 237 244 232 231 234 229 235 231 238 234 234 232 229 234 235 233 229 229 228 234 231 231 233 236 235 236 237 236 236 236 237 239 241 241 241 242 242 243 245 247 247 247
231 231 231 244 236 229 230 231 220 236 230 232 232 232 231 229 232 233 230 229 230 229 233 234 232 233 236 236 236 237 236 234 239 240 240 241 242 242 243 244 246 247 248 249
227 227 228 228 236 236 230 223 223 230 233 233 235 234 230 230 233 234 232 229 230 233 233 232 234 233 233 235 236 235 236 237 236 237 241 243 244 243 243 243 244 246 247 248
226 223 223 227 227 227 234 236 230 222 231 232 230 233 233 232 229 232 233 232 230 232 212 234 237 236 236 235 236 237 237 237 237 238 239 239 241 245 246 246 247 247 249 250
222 223 221 221 221 226 226 235 236 225 228 232 240 231 229 232 233 229 229 232 232 231 233 235 232 232 234 236 237 238 237 238 239 238 239 241 241 240 241 242 245 243 248 250
219 213 222 219 217 217 225 225 224 225 231 227 229 237 245 231 232 232 232 232 232 231 231 231 235 237 234 233 235 238 238 238 237 237 239 240 240 242 241 242 240 244 245 248
215 216 218 221 217 214 217 224 224 226 229 227 236 236 239 232 230 232 233 233 233 232 234 233 233 235 236 236 236 235 237 239 239 239 237 238 240 246 247 244 242 240 243 246
207 213 215 216 219 216 213 216 222 224 225 227 230 232 225 234 232 234 232 233 234 232 232 233 234 233 234 236 237 238 237 237 238 240 241 241 239 239 241 246 249 247 240 241
208 211 215 215 216 217 218 212 216 224 226 226 227 226 227 235 230 241 225 235 234 234 232 233 234 235 236 234 234 236 237 238 239 240 240 242 244 246 246 243 242 246 248 250
212 214 211 213 212 217 217 216 212 218 224 227 227 230 225 229 229 229 229 230 234 233 237 234 234 235 235 235 236 235 236 238 240 241 242 242 243 243 244 246 247 248 246 246
212 216 212 208 212 215 218 217 213 214 220 226 228 228 227 226 225 228 230 228 229 232 234 237 238 237 237 237 236 236 236 237 238 240 242 243 244 246 249 246 245 248 250 251
219 215 217 211 211 213 215 217 217 215 217 222 225 230 229 228 227 224 227 229 230 229 233 234 237 239 239 238 238 239 237 237 238 239 241 242 244 245 246 248 249 250 251 252
225 220 217 217 210 214 214 216 218 218 219 219 223 225 231 231 228 228 226 225 229 230 229 231 236 238 240 241 241 239 240 241 240 240 241 242 244 245 245 247 247 248 249 250
267 222 225 222 219 212 215 214 216 219 220 216 220 225 227 231 232 229 228 227 225 228 231 231 232 235 237 240 241 240 240 241 242 243 243 244 245 245 246 247 248 248 249 250
21 215 210 223 220 218 213 214 215 215 219 220 216 222 226 228 227 233 233 229 230 229 229 232 234 234 236 237 239 239 240 240 241 242 243 244 245 244 246 248 248 248 248 249
14 23 200 215 223 215 218 214 213 216 212 220 219 219 223 228 231 229 232 234 232 230 230 230 231 234 235 238 239 238 240 241 242 242 242 244 244 245 246 247 248 248 247 248
3 15 22 315 215 218 217 216 216 214 215 217 221 219 222 223 229 232 233 236 236 236 232 231 233 234 233 235 235 239 240 240 241 242 244 245 244 246 247 247 249 249 245 249
344 1 13 21 8 213 217 221 217 217 218 216 218 222 222 223 226 229 231 234 236 237 239 237 234 233 234 234 234 235 238 240 241 242 242 243 244 244 245 249 247 247 248 249
319 313 350 11 20 273 231 218 223 219 218 220 220 218 221 223 221 224 227 229 235 237 239 239 240 240 239 237 237 236 236 237 238 240 243 243 244 244 244 244 245 246 246 249
291 292 286 304 320 20 15 162 210 227 221 221 221 225 221 220 223 228 232 232 233 234 237 239 238 236 241 242 237 239 239 238 236 238 239 241 244 244 243 243 244 244 245 245
274 277 271 260 260 251 259 310 230 215 227 229 225 223 227 228 225 226 226 228 232 235 234 232 238 239 239 240 240 241 241 240 240 240 239 239 241 242 242 242 243 245 245 245
268 251 265 267 254 245 245 234 240 254 231 226 223 231 227 226 231 231 224 223 225 229 228 232 237 240 240 242 242 240 236 238 238 239 237 240 240 238 238 240 242 244 245 245
285 267 251 252 262 262 253 252 238 239 237 248 234 231 225 227 229 230 226 224 228 232 235 239 240 240 244 245 244 242 242 238 236 237 238 237 238 239 240 239 238 240 243 244